Location: Poughquag
(41.6090°N, 73.6820°W)
Time: 12:06:09
(UTC-04:00)

Vanguard 1 - Pass Details

Date: 05 June 2020
Orbit: 650 x 3833 km, 34.2° (Epoch: 07 July)

Event Time Altitude Azimuth Distance (km) Brightness Sun altitude
Rises 02:52:28 0° 195° (SSW) 4,666 - -20.1°
Reaches altitude 10° 02:55:52 10° 182° (S) 4,097 - -19.8°
Exits shadow 02:57:40 15° 173° (S) 3,902 12.6 -19.6°
Maximum altitude 03:04:46 25° 131° (SE) 3,970 13.0 -18.9°
Drops below altitude 10° 03:17:56 10° 86° (E) 6,237 14.7 -17.6°
Sets 03:24:50 0° 76° (ENE) 7,659 15.4 -16.8°
